Simultaneous Nadir Overpasses (SNOs) Predictions

Prediction of SNOs between GOES-15 and NPP Satellite Orbit:

Table of predicted SNOs for the next 14.0 days since TLE Epoch: 5/25/2013
Index Date Time (GOES-15) GOES-15 Lat,Lon NPP Lat,Lon Distance(km) Time Diff (sec)
1 05/25/2013 22:27:22 0.01,-135.29 -0.19,-136.09 92.26 80
2 05/26/2013 22:11:17 0.00,-135.27 0.83,-131.56 422.19 80
3 05/28/2013 10:30:25 -0.02,-135.24 0.36,-136.82 181.28 80
4 05/29/2013 10:14:20 -0.01,-135.21 -0.66,-132.29 332.78 80
5 05/30/2013 22:33:37 0.02,-135.16 -0.55,-137.59 276.95 80
6 05/31/2013 22:17:32 0.01,-135.14 0.47,-133.05 237.22 80
7 06/02/2013 10:36:39 -0.03,-135.11 0.71,-138.32 366.25 80
8 06/03/2013 10:20:35 -0.02,-135.08 -0.32,-133.79 147.42 80
9 06/04/2013 22:39:51
